This is the latest recevied weather packets stored in our database for station/object OH7GGX-14. If no packets are shown the sender has not sent any weather packets the latest 10 day(s).
| Time | Temp. | Humidity | Pressure | Rain* | Wind** | Luminosity | Snow |
|---|---|---|---|---|---|---|---|
| 1777475508 | 5.56° C | 50% | 1021.7 hPa | 0 mm | - | - | - |
| 1777474908 | 5.56° C | 50% | 1021.7 hPa | 0 mm | - | - | - |
| 1777474308 | 5.56° C | 50% | 1021.7 hPa | 0 mm | - | - | - |
| 1777473708 | 5.56° C | 50% | 1021.6 hPa | 0 mm | - | - | - |
| 1777473108 | 5.56° C | 50% | 1021.7 hPa | 0 mm | - | - | - |
| 1777472508 | 5.56° C | 49% | 1021.5 hPa | 0 mm | - | - | - |
| 1777471908 | 5.56° C | 51% | 1021.6 hPa | 0 mm | - | - | - |
| 1777471308 | 5.56° C | 50% | 1021.6 hPa | 0 mm | - | - | - |
| 1777470708 | 5.56° C | 49% | 1021.8 hPa | 0 mm | - | - | - |
| 1777470108 | 5.56° C | 51% | 1021.7 hPa | 0 mm | - | - | - |
| 1777469508 | 5.56° C | 53% | 1021.5 hPa | 0 mm | - | - | - |
| 1777468908 | 5° C | 53% | 1021.7 hPa | 0 mm | - | - | - |
| 1777468308 | 5° C | 54% | 1021.8 hPa | 0 mm | - | - | - |
| 1777467708 | 5° C | 53% | 1021.8 hPa | 0 mm | - | - | - |
| 1777467108 | 5° C | 53% | 1022 hPa | 0 mm | - | - | - |
| 1777466508 | 5° C | 53% | 1022 hPa | 0 mm | - | - | - |
| 1777465908 | 5° C | 55% | 1022 hPa | 0 mm | - | - | - |
| 1777465308 | 5° C | 52% | 1021.9 hPa | 0 mm | - | - | - |
| 1777464708 | 4.44° C | 54% | 1022 hPa | 0 mm | - | - | - |
| 1777464108 | 5° C | 52% | 1022 hPa | 0 mm | - | - | - |
| 1777463508 | 4.44° C | 55% | 1021.9 hPa | 0 mm | - | - | - |
| 1777462908 | 4.44° C | 55% | 1022 hPa | 0 mm | - | - | - |
| 1777462308 | 4.44° C | 54% | 1022.1 hPa | 0 mm | - | - | - |
| 1777461708 | 4.44° C | 56% | 1022 hPa | 0 mm | - | - | - |
| 1777461108 | 3.89° C | 57% | 1022.1 hPa | 0 mm | - | - | - |
* Rain latest hour (hover to see other rain measurements)
** Current wind speed in m/s (hover to see current wind gust speed)